Location: Unspecified
(56.5167°N, 0.0000°E)
Time: 02:19:41
(UTC+02:00)

Cosmos 1674 - Visible Passes

Search period start: 25 July 2016 00:00
Search period end: 04 August 2016 00:00
Orbit: 501 x 525 km, 82.5° (Epoch: 24 July)

Date Brightness Start Highest point End Pass type
(mag) Time Alt. Az. Time Alt. Az. Time Alt. Az.
25 Jul 5.1 04:49:54 10° N 04:53:10 26° ENE 04:56:23 10° ESE visible
26 Jul 5.4 04:34:10 10° N 04:37:15 22° ENE 04:40:17 10° ESE visible
27 Jul 5.5 04:18:28 10° NNE 04:21:19 20° ENE 04:24:08 10° ESE visible
28 Jul 5.6 04:02:47 10° NNE 04:05:22 17° ENE 04:07:55 10° ESE visible
29 Jul 5.6 03:47:09 10° NNE 03:49:24 15° ENE 03:51:39 10° E visible
30 Jul 5.7 03:31:35 10° NNE 03:33:26 13° NE 03:35:16 10° E visible
30 Jul 2.8 05:05:58 10° N 05:09:47 83° ENE 05:13:34 10° SSE visible
31 Jul 5.8 03:16:10 10° NE 03:17:28 11° NE 03:18:45 10° ENE visible
31 Jul 3.0 04:50:07 10° N 04:53:55 69° ENE 04:57:40 10° SSE visible
01 Aug 3.3 04:34:17 10° N 04:38:03 58° ENE 04:41:45 10° SSE visible
02 Aug 3.6 04:18:27 10° N 04:22:09 48° ENE 04:25:48 10° SSE visible
03 Aug 3.9 04:02:37 10° N 04:06:14 40° ENE 04:09:48 10° SE visible
